Time,TemperatureF,DewpointF,PressureIn,WindDirection,WindDirectionDegrees,WindSpeedMPH,WindSpeedGustMPH,Humidity,HourlyPrecipIn,Conditions,Clouds,dailyrainin,SoftwareType,DateUTC
2013-07-05 00:14:00,66.2,64.0,29.99,SSE,161,0.0,1.0,92,0.00,,,0.15,weatherlink.com 1.10,2013-07-05 05:14:00,
2013-07-05 00:29:00,65.9,64.0,29.99,SSE,161,0.0,0.0,93,0.00,,,0.15,weatherlink.com 1.10,2013-07-05 05:29:00,
2013-07-05 00:44:00,65.6,64.0,29.98,SSE,161,0.0,0.0,93,0.00,,,0.15,weatherlink.com 1.10,2013-07-05 05:44:00,
2013-07-05 00:59:00,65.3,63.0,29.98,SSE,161,0.0,0.0,93,0.00,,,0.15,weatherlink.com 1.10,2013-07-05 05:59:00,
2013-07-05 01:14:00,65.0,63.0,29.98,SSE,161,0.0,0.0,93,0.00,,,0.15,weatherlink.com 1.10,2013-07-05 06:14:00,
2013-07-05 01:29:00,64.9,63.0,29.98,SSE,161,0.0,0.0,93,0.00,,,0.15,weatherlink.com 1.10,2013-07-05 06:29:00,
2013-07-05 01:44:00,65.6,63.0,29.98,SSE,161,0.0,1.0,92,0.00,,,0.15,weatherlink.com 1.10,2013-07-05 06:44:00,
2013-07-05 01:59:00,65.2,63.0,29.98,SSE,161,0.0,0.0,92,0.00,,,0.15,weatherlink.com 1.10,2013-07-05 06:59:00,
2013-07-05 02:14:00,64.9,63.0,29.98,SSE,161,0.0,0.0,92,0.00,,,0.15,weatherlink.com 1.10,2013-07-05 07:14:00,
2013-07-05 02:29:00,64.6,62.0,29.98,SSE,161,0.0,0.0,92,0.00,,,0.15,weatherlink.com 1.10,2013-07-05 07:29:00,
2013-07-05 02:44:00,64.3,62.0,29.98,SSE,161,0.0,0.0,93,0.00,,,0.15,weatherlink.com 1.10,2013-07-05 07:44:00,
2013-07-05 02:59:00,64.0,62.0,29.98,SSE,161,0.0,0.0,93,0.00,,,0.15,weatherlink.com 1.10,2013-07-05 07:59:00,
2013-07-05 03:14:00,64.1,62.0,29.98,SSE,161,0.0,1.0,94,0.00,,,0.15,weatherlink.com 1.10,2013-07-05 08:14:00,
2013-07-05 03:29:00,64.5,63.0,29.98,SSE,161,0.0,0.0,93,0.00,,,0.15,weatherlink.com 1.10,2013-07-05 08:29:00,
2013-07-05 03:44:00,64.8,63.0,29.98,SSE,161,0.0,1.0,93,0.00,,,0.15,weatherlink.com 1.10,2013-07-05 08:44:00,
2013-07-05 03:59:00,64.5,62.0,29.98,SSE,161,0.0,0.0,92,0.00,,,0.15,weatherlink.com 1.10,2013-07-05 08:59:00,
2013-07-05 04:14:00,64.1,62.0,29.97,SSE,161,0.0,0.0,92,0.00,,,0.15,weatherlink.com 1.10,2013-07-05 09:14:00,
2013-07-05 04:29:00,64.3,62.0,29.97,SSE,161,0.0,0.0,93,0.00,,,0.15,weatherlink.com 1.10,2013-07-05 09:29:00,
2013-07-05 04:59:00,63.5,62.0,29.98,SSE,161,0.0,0.0,93,0.00,,,0.15,weatherlink.com 1.10,2013-07-05 09:59:00,
2013-07-05 05:14:00,63.3,62.0,29.98,SSE,161,0.0,0.0,94,0.00,,,0.15,weatherlink.com 1.10,2013-07-05 10:14:00,
2013-07-05 05:29:00,63.1,61.0,29.99,SSE,161,0.0,0.0,94,0.00,,,0.15,weatherlink.com 1.10,2013-07-05 10:29:00,
2013-07-05 05:44:00,62.4,60.0,30.00,SSE,161,0.0,0.0,93,0.00,,,0.15,weatherlink.com 1.10,2013-07-05 10:44:00,
2013-07-05 05:59:00,62.5,61.0,30.00,SSE,161,0.0,2.0,94,0.00,,,0.15,weatherlink.com 1.10,2013-07-05 10:59:00,
2013-07-05 06:14:00,63.1,61.0,30.00,SSE,161,0.0,0.0,94,0.00,,,0.15,weatherlink.com 1.10,2013-07-05 11:14:00,
2013-07-05 06:29:00,62.7,61.0,30.00,SSE,161,0.0,0.0,94,0.00,,,0.15,weatherlink.com 1.10,2013-07-05 11:29:00,
2013-07-05 06:44:00,62.6,61.0,30.00,SSE,161,1.0,1.0,94,0.00,,,0.15,weatherlink.com 1.10,2013-07-05 11:44:00,
2013-07-05 06:59:00,62.9,61.0,30.00,SSE,161,0.0,1.0,94,0.00,,,0.15,weatherlink.com 1.10,2013-07-05 11:59:00,
2013-07-05 07:14:00,64.0,62.0,30.01,SSE,161,2.0,3.0,93,0.00,,,0.15,weatherlink.com 1.10,2013-07-05 12:14:00,
2013-07-05 07:29:00,65.0,63.0,30.01,SSE,161,0.0,1.0,92,0.00,,,0.15,weatherlink.com 1.10,2013-07-05 12:29:00,
2013-07-05 07:59:00,68.0,64.0,30.02,SSE,157,2.0,4.0,88,0.00,,,0.15,weatherlink.com 1.10,2013-07-05 12:59:00,
2013-07-05 08:14:00,69.7,65.0,30.02,SE,144,6.0,7.0,84,0.00,,,0.15,weatherlink.com 1.10,2013-07-05 13:14:00,
2013-07-05 08:29:00,70.9,65.0,30.02,SE,140,6.0,7.0,82,0.00,,,0.15,weatherlink.com 1.10,2013-07-05 13:29:00,
2013-07-05 08:44:00,71.9,65.0,30.02,SE,126,7.0,10.0,78,0.01,,,0.16,weatherlink.com 1.10,2013-07-05 13:44:00,
2013-07-05 08:59:00,73.1,65.0,30.02,SSE,167,8.0,12.0,75,0.01,,,0.16,weatherlink.com 1.10,2013-07-05 13:59:00,
2013-07-05 09:14:00,74.2,65.0,30.02,South,177,5.0,12.0,72,0.01,,,0.16,weatherlink.com 1.10,2013-07-05 14:14:00,
2013-07-05 09:29:00,75.4,65.0,30.02,SE,141,8.0,13.0,71,0.01,,,0.16,weatherlink.com 1.10,2013-07-05 14:29:00,
2013-07-05 09:44:00,76.5,66.0,30.02,SSE,161,9.0,14.0,70,0.00,,,0.16,weatherlink.com 1.10,2013-07-05 14:44:00,
2013-07-05 10:14:00,78.1,65.0,30.02,SSW,199,8.0,13.0,65,0.00,,,0.16,weatherlink.com 1.10,2013-07-05 15:14:00,
2013-07-05 10:29:00,79.3,66.0,30.01,SSE,167,6.0,14.0,64,0.00,,,0.16,weatherlink.com 1.10,2013-07-05 15:29:00,
2013-07-05 10:44:00,80.6,65.0,30.01,South,188,9.0,15.0,60,0.00,,,0.16,weatherlink.com 1.10,2013-07-05 15:44:00,
2013-07-05 10:59:00,81.1,65.0,30.01,South,174,4.0,16.0,58,0.00,,,0.16,weatherlink.com 1.10,2013-07-05 15:59:00,
2013-07-05 11:14:00,81.6,65.0,30.01,SSW,207,8.0,14.0,57,0.00,,,0.16,weatherlink.com 1.10,2013-07-05 16:14:00,
2013-07-05 11:29:00,82.3,64.0,30.00,SSW,202,7.0,14.0,55,0.00,,,0.16,weatherlink.com 1.10,2013-07-05 16:29:00,
2013-07-05 11:44:00,82.9,66.0,30.00,SSW,194,7.0,13.0,56,0.00,,,0.16,weatherlink.com 1.10,2013-07-05 16:44:00,
2013-07-05 11:59:00,83.7,66.0,30.00,SSE,158,6.0,16.0,56,0.00,,,0.16,weatherlink.com 1.10,2013-07-05 16:59:00,
2013-07-05 12:14:00,84.5,65.0,30.00,SSE,158,7.0,15.0,52,0.00,,,0.16,weatherlink.com 1.10,2013-07-05 17:14:00,
2013-07-05 12:29:00,85.2,66.0,29.99,South,175,5.0,14.0,53,0.00,,,0.16,weatherlink.com 1.10,2013-07-05 17:29:00,
2013-07-05 12:44:00,85.8,66.0,29.99,SE,129,5.0,17.0,51,0.00,,,0.16,weatherlink.com 1.10,2013-07-05 17:44:00,
2013-07-05 12:59:00,86.3,66.0,29.99,South,190,3.0,16.0,51,0.00,,,0.16,weatherlink.com 1.10,2013-07-05 17:59:00,
2013-07-05 13:15:00,87.5,67.0,29.98,South,173,6.0,12.0,51,0.00,,,0.16,weatherlink.com 1.10,2013-07-05 18:15:00,
2013-07-05 13:30:00,86.6,67.0,29.98,SSW,200,9.0,15.0,52,0.00,,,0.16,weatherlink.com 1.10,2013-07-05 18:30:00,
2013-07-05 13:45:00,87.4,67.0,29.97,South,190,5.0,15.0,50,0.00,,,0.16,weatherlink.com 1.10,2013-07-05 18:45:00,
2013-07-05 14:00:00,87.8,66.0,29.97,SE,131,4.0,15.0,49,0.00,,,0.16,weatherlink.com 1.10,2013-07-05 19:00:00,
2013-07-05 14:15:00,88.6,66.0,29.97,SSE,153,6.0,18.0,47,0.00,,,0.16,weatherlink.com 1.10,2013-07-05 19:15:00,
2013-07-05 14:30:00,89.1,64.0,29.96,SSE,167,9.0,15.0,44,0.00,,,0.16,weatherlink.com 1.10,2013-07-05 19:30:00,
2013-07-05 14:45:00,89.5,63.0,29.96,South,183,6.0,13.0,42,0.00,,,0.16,weatherlink.com 1.10,2013-07-05 19:45:00,
2013-07-05 15:00:00,89.7,63.0,29.96,South,175,9.0,12.0,41,0.00,,,0.16,weatherlink.com 1.10,2013-07-05 20:00:00,
2013-07-05 15:15:00,89.7,64.0,29.95,SSE,151,5.0,15.0,42,0.00,,,0.16,weatherlink.com 1.10,2013-07-05 20:15:00,
2013-07-05 15:30:00,89.3,62.0,29.95,SW,218,5.0,14.0,40,0.00,,,0.00,weatherlink.com 1.10,2013-07-05 20:30:00,
2013-07-05 15:45:00,88.5,63.0,29.95,South,186,6.0,13.0,42,0.00,,,0.00,weatherlink.com 1.10,2013-07-05 20:45:00,
2013-07-05 16:00:00,88.4,62.0,29.95,South,180,8.0,12.0,42,0.00,,,0.00,weatherlink.com 1.10,2013-07-05 21:00:00,
2013-07-05 16:15:00,87.8,63.0,29.94,South,173,6.0,10.0,44,0.00,,,0.00,weatherlink.com 1.10,2013-07-05 21:15:00,
2013-07-05 16:30:00,87.9,63.0,29.93,SE,144,3.0,8.0,44,0.00,,,0.00,weatherlink.com 1.10,2013-07-05 21:30:00,
2013-07-05 16:45:00,87.9,64.0,29.93,South,170,6.0,9.0,45,0.00,,,0.00,weatherlink.com 1.10,2013-07-05 21:45:00,
2013-07-05 17:00:00,87.7,64.0,29.92,SSE,154,8.0,9.0,45,0.00,,,0.00,weatherlink.com 1.10,2013-07-05 22:00:00,
2013-07-05 17:15:00,87.2,66.0,29.92,SE,142,5.0,10.0,50,0.00,,,0.00,weatherlink.com 1.10,2013-07-05 22:15:00,
2013-07-05 17:30:00,86.7,66.0,29.92,SSE,147,5.0,11.0,51,0.00,,,0.00,weatherlink.com 1.10,2013-07-05 22:30:00,
2013-07-05 17:45:00,86.7,67.0,29.91,SE,146,2.0,12.0,52,0.00,,,0.00,weatherlink.com 1.10,2013-07-05 22:45:00,
2013-07-05 18:00:00,87.4,67.0,29.91,SE,140,11.0,11.0,51,0.00,,,0.00,weatherlink.com 1.10,2013-07-05 23:00:00,
2013-07-05 18:15:00,87.1,66.0,29.91,SE,142,6.0,13.0,50,0.00,,,0.00,weatherlink.com 1.10,2013-07-05 23:15:00,
2013-07-05 18:30:00,87.9,66.0,29.91,South,170,5.0,13.0,49,0.00,,,0.00,weatherlink.com 1.10,2013-07-05 23:30:00,
2013-07-05 18:45:00,87.7,66.0,29.90,South,169,6.0,15.0,48,0.00,,,0.00,weatherlink.com 1.10,2013-07-05 23:45:00,
2013-07-05 19:00:00,87.3,66.0,29.90,South,178,4.0,11.0,49,0.00,,,0.00,weatherlink.com 1.10,2013-07-06 00:00:00,
2013-07-05 19:15:00,86.8,66.0,29.90,SSE,155,10.0,11.0,50,0.00,,,0.00,weatherlink.com 1.10,2013-07-06 00:15:00,
2013-07-05 19:30:00,86.4,67.0,29.90,South,178,4.0,8.0,52,0.00,,,0.00,weatherlink.com 1.10,2013-07-06 00:30:00,
2013-07-05 19:45:00,85.3,66.0,29.89,SSE,166,4.0,4.0,53,0.00,,,0.00,weatherlink.com 1.10,2013-07-06 00:45:00,
2013-07-05 20:00:00,84.3,67.0,29.89,SSE,165,2.0,4.0,56,0.00,,,0.00,weatherlink.com 1.10,2013-07-06 01:00:00,
2013-07-05 20:15:00,83.3,66.0,29.90,SSE,165,1.0,2.0,57,0.00,,,0.00,weatherlink.com 1.10,2013-07-06 01:15:00,
2013-07-05 20:30:00,82.6,66.0,29.90,SSE,165,0.0,1.0,58,0.00,,,0.00,weatherlink.com 1.10,2013-07-06 01:30:00,
2013-07-05 20:45:00,81.7,66.0,29.90,SSE,165,0.0,1.0,60,0.00,,,0.00,weatherlink.com 1.10,2013-07-06 01:45:00,
2013-07-05 21:00:00,80.7,66.0,29.90,SSE,165,0.0,0.0,62,0.00,,,0.00,weatherlink.com 1.10,2013-07-06 02:00:00,
2013-07-05 21:15:00,80.0,67.0,29.91,SSE,165,0.0,0.0,64,0.00,,,0.00,weatherlink.com 1.10,2013-07-06 02:15:00,
2013-07-05 21:31:00,78.8,67.0,29.91,SSE,165,0.0,0.0,68,0.00,,,0.00,weatherlink.com 1.10,2013-07-06 02:31:00,
2013-07-05 21:46:00,77.2,67.0,29.92,SSE,165,0.0,0.0,71,0.00,,,0.00,weatherlink.com 1.10,2013-07-06 02:46:00,
2013-07-05 22:01:00,77.1,66.0,29.92,SSE,165,0.0,3.0,68,0.00,,,0.00,weatherlink.com 1.10,2013-07-06 03:01:00,
2013-07-05 22:16:00,77.9,65.0,29.93,SSE,165,0.0,2.0,64,0.00,,,0.00,weatherlink.com 1.10,2013-07-06 03:16:00,
2013-07-05 22:31:00,78.2,64.0,29.93,South,175,2.0,4.0,62,0.00,,,0.00,weatherlink.com 1.10,2013-07-06 03:31:00,
2013-07-05 22:46:00,78.5,63.0,29.94,SSE,157,3.0,4.0,60,0.00,,,0.00,weatherlink.com 1.10,2013-07-06 03:46:00,
2013-07-05 23:01:00,78.7,63.0,29.94,SSE,155,3.0,4.0,59,0.00,,,0.00,weatherlink.com 1.10,2013-07-06 04:01:00,
2013-07-05 23:16:00,78.6,63.0,29.94,SSE,156,0.0,1.0,59,0.00,,,0.00,weatherlink.com 1.10,2013-07-06 04:16:00,
2013-07-05 23:31:00,78.3,63.0,29.94,SSE,163,1.0,4.0,60,0.00,,,0.00,weatherlink.com 1.10,2013-07-06 04:31:00,
2013-07-05 23:46:00,77.5,63.0,29.94,SSE,163,3.0,4.0,61,0.00,,,0.00,weatherlink.com 1.10,2013-07-06 04:46:00,